• In Latvia
  • List of Countries
  • For 7 days
  • Water Temperature
  • Satellite Maps
  • Weather Map
  • Weather Widgets
  • user-avatar
    Login

    Hourly Weather Biskira

    Today, 23 July, Sunday

    Time Temperature Precipitation Wind Pressure Humidity
    00:00 +42°C° 0.2 mm 5 mps 754 mmHg 20%
    01:00 +41°C° 0.3 mm 4 mps 754 mmHg 22%
    02:00 +40°C° 0.3 mm 4 mps 754 mmHg 23%
    03:00 +39°C° 0.3 mm 3 mps 754 mmHg 24%
    04:00 +39°C° 0.1 mm 3 mps 754 mmHg 23%
    05:00 +40°C° 0.1 mm 4 mps 754 mmHg 22%
    06:00 +41°C° 0.1 mm 4 mps 754 mmHg 22%
    07:00 +42°C° 0 mm 4 mps 754 mmHg 20%
    08:00 +43°C° 0 mm 4 mps 754 mmHg 19%
    09:00 +44°C° 0 mm 4 mps 754 mmHg 17%
    10:00 +45°C° 0 mm 4 mps 754 mmHg 16%
    11:00 +47°C° 0 mm 4 mps 754 mmHg 15%
    12:00 +46°C° 0 mm 3 mps 754 mmHg 14%
    13:00 +47°C° 0 mm 3 mps 754 mmHg 13%
    14:00 +47°C° 0 mm 3 mps 753 mmHg 13%
    15:00 +48°C° 0 mm 3 mps 753 mmHg 12%
    16:00 +47°C° 0 mm 3 mps 753 mmHg 13%
    17:00 +47°C° 0 mm 3 mps 752 mmHg 13%
    18:00 +47°C° 0 mm 2 mps 752 mmHg 13%
    19:00 +46°C° 0 mm 2 mps 753 mmHg 14%
    20:00 +45°C° 0 mm 2 mps 753 mmHg 16%
    21:00 +42°C° 0 mm 2 mps 753 mmHg 17%
    22:00 +42°C° 0 mm 2 mps 753 mmHg 18%
    23:00 +42°C° 0 mm 3 mps 753 mmHg 18%

    Tomorrow, 24 July, Monday

    Time Temperature Precipitation Wind Pressure Humidity
    00:00 +42°C° 0 mm 3 mps 753 mmHg 19%
    01:00 +40°C° 0 mm 2 mps 753 mmHg 20%
    02:00 +39°C° 0 mm 2 mps 753 mmHg 21%
    03:00 +39°C° 0 mm 2 mps 752 mmHg 22%
    04:00 +39°C° 0 mm 2 mps 752 mmHg 23%
    05:00 +39°C° 0 mm 1 mps 752 mmHg 23%
    06:00 +39°C° 0 mm 1 mps 752 mmHg 23%
    07:00 +40°C° 0 mm 2 mps 752 mmHg 21%
    08:00 +43°C° 0 mm 4 mps 752 mmHg 18%
    09:00 +45°C° 0 mm 5 mps 752 mmHg 16%
    10:00 +46°C° 0 mm 5 mps 751 mmHg 14%
    11:00 +47°C° 0 mm 6 mps 751 mmHg 13%
    12:00 +49°C° 0 mm 6 mps 750 mmHg 11%
    13:00 +49°C° 0 mm 6 mps 750 mmHg 10%
    14:00 +51°C° 0 mm 7 mps 749 mmHg 9%
    15:00 +52°C° 0 mm 7 mps 748 mmHg 8%
    16:00 +51°C° 0.1 mm 7 mps 748 mmHg 10%
    17:00 +50°C° 0.1 mm 7 mps 748 mmHg 12%
    18:00 +49°C° 0.1 mm 7 mps 748 mmHg 13%
    19:00 +46°C° 0 mm 6 mps 749 mmHg 17%
    20:00 +45°C° 0 mm 5 mps 749 mmHg 21%
    21:00 +43°C° 0 mm 5 mps 750 mmHg 25%
    22:00 +42°C° 0 mm 5 mps 750 mmHg 30%
    23:00 +40°C° 0 mm 4 mps 750 mmHg 34%

    Day after tomorrow, 25 July, Tuesday

    Time Temperature Precipitation Wind Pressure Humidity
    00:00 +38°C° 0 mm 4 mps 750 mmHg 39%
    01:00 +37°C° 0 mm 5 mps 750 mmHg 40%
    02:00 +36°C° 0 mm 5 mps 750 mmHg 42%
    03:00 +35°C° 0 mm 5 mps 749 mmHg 44%
    04:00 +35°C° 0 mm 5 mps 750 mmHg 44%
    05:00 +34°C° 0 mm 5 mps 750 mmHg 44%
    06:00 +34°C° 0 mm 5 mps 750 mmHg 44%
    07:00 +35°C° 0 mm 4 mps 750 mmHg 38%
    08:00 +37°C° 0 mm 4 mps 750 mmHg 32%
    09:00 +38°C° 0 mm 4 mps 750 mmHg 26%
    10:00 +39°C° 0 mm 3 mps 750 mmHg 23%
    11:00 +40°C° 0 mm 3 mps 750 mmHg 21%
    12:00 +42°C° 0 mm 3 mps 749 mmHg 18%
    13:00 +43°C° 0 mm 4 mps 749 mmHg 17%
    14:00 +43°C° 0 mm 4 mps 748 mmHg 15%
    15:00 +45°C° 0 mm 5 mps 748 mmHg 14%
    16:00 +43°C° 0 mm 5 mps 748 mmHg 14%
    17:00 +43°C° 0 mm 5 mps 748 mmHg 14%
    18:00 +43°C° 0 mm 5 mps 748 mmHg 14%
    19:00 +42°C° 0 mm 4 mps 748 mmHg 16%
    20:00 +40°C° 0 mm 2 mps 748 mmHg 18%
    21:00 +39°C° 0 mm 1 mps 748 mmHg 20%
    22:00 +38°C° 0 mm 2 mps 749 mmHg 23%
    23:00 +38°C° 0 mm 2 mps 749 mmHg 25%

    26 July, Wednesday

    Time Temperature Precipitation Wind Pressure Humidity
    00:00 +37°C° 0 mm 2 mps 749 mmHg 27%
    01:00 +36°C° 0 mm 3 mps 749 mmHg 31%
    02:00 +35°C° 0 mm 4 mps 749 mmHg 36%
    03:00 +34°C° 0 mm 4 mps 748 mmHg 40%
    04:00 +33°C° 0 mm 4 mps 749 mmHg 42%
    05:00 +33°C° 0 mm 4 mps 749 mmHg 43%
    06:00 +31°C° 0 mm 3 mps 749 mmHg 45%
    07:00 +33°C° 0 mm 3 mps 750 mmHg 42%
    08:00 +34°C° 0 mm 3 mps 750 mmHg 40%
    09:00 +35°C° 0 mm 3 mps 750 mmHg 37%
    10:00 +36°C° 0 mm 3 mps 750 mmHg 33%
    11:00 +37°C° 0 mm 2 mps 749 mmHg 30%
    12:00 +38°C° 0 mm 2 mps 749 mmHg 27%
    13:00 +39°C° 0 mm 3 mps 749 mmHg 24%
    14:00 +41°C° 0 mm 4 mps 748 mmHg 21%
    15:00 +42°C° 0 mm 5 mps 748 mmHg 18%
    16:00 +42°C° 0 mm 5 mps 748 mmHg 18%
    17:00 +42°C° 0 mm 5 mps 748 mmHg 17%
    18:00 +42°C° 0 mm 5 mps 748 mmHg 17%
    19:00 +41°C° 0 mm 5 mps 748 mmHg 19%
    20:00 +40°C° 0 mm 5 mps 749 mmHg 21%
    21:00 +39°C° 0 mm 5 mps 749 mmHg 23%
    22:00 +37°C° 0 mm 4 mps 749 mmHg 24%
    23:00 +36°C° 0 mm 4 mps 749 mmHg 26%

    27 July, Thursday

    Time Temperature Precipitation Wind Pressure Humidity
    00:00 +35°C° 0 mm 3 mps 750 mmHg 27%
    01:00 +35°C° 0 mm 3 mps 749 mmHg 29%
    02:00 +34°C° 0 mm 3 mps 749 mmHg 31%
    03:00 +33°C° 0 mm 3 mps 749 mmHg 33%
    04:00 +33°C° 0 mm 3 mps 750 mmHg 36%
    05:00 +33°C° 0 mm 3 mps 750 mmHg 39%
    06:00 +31°C° 0 mm 3 mps 751 mmHg 43%
    07:00 +33°C° 0 mm 3 mps 751 mmHg 42%
    08:00 +34°C° 0 mm 3 mps 751 mmHg 41%
    09:00 +34°C° 0 mm 3 mps 752 mmHg 41%
    10:00 +35°C° 0 mm 3 mps 751 mmHg 37%
    11:00 +36°C° 0 mm 2 mps 751 mmHg 33%
    12:00 +37°C° 0 mm 2 mps 751 mmHg 29%
    13:00 +38°C° 0 mm 2 mps 751 mmHg 26%
    14:00 +39°C° 0 mm 2 mps 750 mmHg 23%
    15:00 +40°C° 0 mm 2 mps 750 mmHg 20%
    16:00 +40°C° 0 mm 2 mps 750 mmHg 19%
    17:00 +40°C° 0 mm 2 mps 750 mmHg 17%
    18:00 +40°C° 0 mm 3 mps 750 mmHg 16%
    19:00 +40°C° 0 mm 2 mps 751 mmHg 17%
    20:00 +39°C° 0 mm 2 mps 751 mmHg 18%
    21:00 +38°C° 0 mm 2 mps 752 mmHg 20%
    22:00 +38°C° 0 mm 2 mps 752 mmHg 22%
    23:00 +37°C° 0 mm 2 mps 752 mmHg 24%

    28 July, Friday

    Time Temperature Precipitation Wind Pressure Humidity
    00:00 +36°C° 0 mm 2 mps 752 mmHg 26%
    01:00 +35°C° 0 mm 2 mps 752 mmHg 27%
    02:00 +35°C° 0 mm 2 mps 752 mmHg 28%
    03:00 +34°C° 0 mm 2 mps 751 mmHg 29%
    04:00 +34°C° 0 mm 3 mps 752 mmHg 29%
    05:00 +34°C° 0 mm 3 mps 752 mmHg 30%
    06:00 +34°C° 0 mm 4 mps 753 mmHg 30%
    07:00 +34°C° 0 mm 4 mps 753 mmHg 30%
    08:00 +35°C° 0 mm 4 mps 753 mmHg 31%
    09:00 +36°C° 0 mm 4 mps 753 mmHg 31%
    10:00 +37°C° 0 mm 4 mps 753 mmHg 29%
    11:00 +38°C° 0 mm 3 mps 753 mmHg 27%
    12:00 +39°C° 0 mm 2 mps 753 mmHg 25%
    13:00 +40°C° 0 mm 2 mps 753 mmHg 24%
    14:00 +40°C° 0 mm 2 mps 752 mmHg 22%
    15:00 +41°C° 0 mm 2 mps 752 mmHg 21%
    16:00 +41°C° 0 mm 2 mps 752 mmHg 20%
    17:00 +41°C° 0 mm 2 mps 752 mmHg 20%
    18:00 +41°C° 0 mm 2 mps 752 mmHg 20%
    19:00 +40°C° 0 mm 2 mps 752 mmHg 21%
    20:00 +40°C° 0 mm 2 mps 753 mmHg 22%
    21:00 +39°C° 0 mm 2 mps 753 mmHg 23%
    22:00 +38°C° 0 mm 2 mps 753 mmHg 25%
    23:00 +38°C° 0 mm 2 mps 753 mmHg 26%
    Show more